Regional Weather Roundup
Issued by NWS

Home | Current Version | Previous Version | Text Only | Print | Product List | Glossary On
Versions: 1 2 3 4 5 6 7 8 9 10 11 12 13 14 15 16 17 18 19 20 21 22 23 24 25 26 27 28 29 30 31 32 33 34 35 36 37 38 39 40 41 42 43 44 45 46 47 48 49 50
000
ASUS45 KCYS 011010
RWRWY

WYOMING REGIONAL WEATHER ROUNDUP
NATIONAL WEATHER SERVICE CHEYENNE WY
400 AM MDT SAT OCT 01 2016

NOTE:  "FAIR" INDICATES FEW OR NO CLOUDS BELOW 12,000 FEET
WITH NO SIGNIFICANT WEATHER AND/OR OBSTRUCTIONS TO VISIBILITY.

WYZ001-011100-
YELLOWSTONE NATIONAL PARK

CITY           SKY/WX    TMP DP  RH WIND       PRES   REMARKS
LK YELLOWSTONE   N/A     31  31 100 CALM      30.27F
W YELLOWSTONE  NOT AVBL

$$
WYZ002>013-054>058-071-098>099-011100-
NORTHERN WYOMING

CITY           SKY/WX    TMP DP  RH WIND       PRES   REMARKS
JACKSON        FAIR      37  37 100 CALM      30.22S
CODY           FAIR      54  43  66 S7        30.10S
GREYBULL       FAIR      50  48  93 CALM      30.04F
WORLAND        FAIR      49  45  86 SW5       30.05F
SHERIDAN       FAIR      48  43  82 CALM      30.04S
BUFFALO        FAIR      57  40  52 W8        30.09F
GILLETTE       FAIR      47  44  90 S5        30.05F
HULETT         FAIR      52  45  76 S7        30.07S
NEWCASTLE      FAIR      50  43  76 CALM      30.07S

$$
WYZ014>020-022>026-101>103-011100-
CENTRAL WYOMING

CITY           SKY/WX    TMP DP  RH WIND       PRES   REMARKS
BIG PINEY      FAIR      38  36  92 CALM      30.24F
PINEDALE       FAIR      32  32 100 W3        30.25F
DUBOIS         FAIR      41  34  75 NW12      30.22F
LANDER         FAIR      54  39  57 W5        30.12F
RIVERTON       FAIR      49  44  83 NW8       30.13F
CASPER         FAIR      42  38  85 W5        30.12F
DOUGLAS        FAIR      45  40  82 CALM      30.12S

$$
WYZ021-027>030-104>119-011100-
SOUTHERN WYOMING

CITY           SKY/WX    TMP DP  RH WIND       PRES   REMARKS
EVANSTON       FAIR      48  38  68 S6        30.23F
FORT BRIDGER   FAIR      53  40  59 SW3       30.25F
ROCK SPRINGS   FAIR      50  41  71 SE8       30.22F
DIXON          FAIR      43  39  85 E3        30.27S
RAWLINS        FAIR      42  37  82 CALM      30.23S
SARATOGA       FAIR      39  39 100 SE6       30.26F WCI  35
LARAMIE        FAIR      42  38  85 S8        30.25F
CHEYENNE       FAIR      49  41  74 W9        30.18S
TORRINGTON     FAIR      46  44  93 E5        30.06F
PINE BLUFFS    FAIR      39  37  93 MISG      30.14F

$$



USA.gov is the U.S. government's official web portal to all federal, state and local government web resources and services.